Epoch 2021 Aug. 14.0 TT = JDT 2459440.5
T 2021 Aug. 30.63190 TT Rudenko
q 2.3009643 (2000.0) P Q
n 0.18615847 Peri. 105.29919 +0.95070554 +0.27135550
a 3.0377184 Node 239.16339 -0.30584523 +0.90038886
e 0.2425353 Incl. 10.06667 +0.05116319 +0.34009718
P 5.29
From 27 observations 2016 Oct. 25-2021 Aug. 14, mean residual 0".3.